[[{"header":{"parameterUnit":"m.s-1","parameterCategory":2,"la1":30.2992,"la2":30.254,"lo1":-89.0895,"lo2":-89.0443,"dy":0.0025,"dx":0.0025,"nx":19,"ny":19,"refTime":"2026-03-16T21:00:00:Z","depth":"0","parameterNumber":2,"parameterNumberName":"U-component_of_CURRENTS"},"data":[0,0,0,-0.2125,-0.2126,-0.2173,-0.2173,-0.2237,-0.2238,0,0,0,0,0,0,0,0,0,0,0,-0.21,-0.2101,-0.2125,-0.2126,-0.2173,-0.2173,-0.2237,-0.2238,0,0,0,0,0,0,0,0,0,0,0,-0.21,-0.2101,-0.2101,-0.2127,-0.2173,-0.2173,-0.2237,-0.22,0,0,0,0,0,0,0,0,0,0,-0.2154,-0.2127,-0.2101,-0.2101,-0.2127,-0.2173,-0.2173,-0.2198,-0.2202,-0.2218,0,-0.2221,0,-0.2236,-0.2242,-0.2243,0,0,0,-0.2124,-0.2124,-0.2142,-0.2101,-0.2127,-0.2173,-0.2151,-0.22,-0.2205,-0.2223,-0.2222,-0.2224,-0.2237,-0.2243,-0.2243,-0.2301,-0.2301,0,0,-0.2122,-0.2105,-0.2139,-0.2145,-0.2135,-0.215,-0.2153,-0.2203,-0.2203,-0.2222,-0.2226,-0.2238,-0.2243,-0.2244,-0.23,-0.2301,0,0,0,-0.2116,-0.2103,-0.2121,-0.2142,-0.2154,-0.2151,-0.2155,-0.22,-0.2207,-0.2227,-0.2239,-0.2244,-0.2244,-0.23,-0.23,-0.2291,0,0,0,-0.2114,-0.21,-0.2119,-0.211,-0.2152,-0.2177,-0.215,-0.2204,-0.221,-0.2239,-0.2244,-0.2245,-0.23,-0.23,-0.2291,-0.2279,0,0,0,-0.2099,-0.2099,-0.2104,-0.2109,-0.2132,-0.2176,-0.2186,-0.2205,-0.2218,-0.2243,-0.2245,-0.23,-0.23,-0.2291,-0.2279,-0.2274,0,0,0,-0.2082,-0.2087,-0.2103,-0.2117,-0.2131,-0.2172,-0.2186,-0.2216,-0.2236,-0.2244,-0.23,-0.23,-0.2291,-0.2279,-0.2274,-0.2227,-0.2222,0,0,-0.2081,-0.2087,-0.2097,-0.2113,-0.2146,-0.2166,-0.2202,-0.2231,-0.2246,-0.2283,-0.2285,-0.2291,-0.2279,-0.2274,-0.2244,-0.2238,0,0,0,-0.2093,-0.2093,-0.2109,-0.213,-0.2167,-0.2195,-0.2229,-0.2242,-0.227,-0.226,-0.23,-0.2292,-0.2289,-0.2262,-0.2258,-0.2189,-0.2302,-0.2302,-0.2302,-0.2061,-0.2088,-0.2102,-0.2136,-0.2166,-0.2217,-0.2238,-0.2262,-0.2281,-0.2288,-0.2291,-0.2289,-0.2261,-0.2257,-0.2187,-0.2304,-0.2304,-0.2304,-0.2304,-0.2045,-0.2045,-0.2084,-0.2101,-0.2148,-0.2178,-0.2241,-0.2258,-0.2284,-0.2294,-0.2292,-0.2262,-0.2251,-0.2179,-0.2303,-0.2303,-0.2304,-0.2304,-0.2304,-0.2003,-0.2006,-0.2022,-0.2046,-0.2082,-0.2144,-0.2178,-0.223,-0.2263,-0.2269,-0.224,-0.224,-0.217,-0.2269,-0.2269,-0.2269,-0.2269,-0.2269,-0.2269,-0.1948,-0.1969,-0.1947,-0.1985,-0.1996,-0.2041,-0.2136,-0.2169,-0.2205,-0.2221,-0.2221,-0.2156,-0.2278,-0.2272,-0.2268,-0.2268,-0.2268,-0.2268,-0.2268,-0.1889,-0.1884,-0.185,-0.1848,-0.1878,-0.1888,-0.2014,-0.2083,-0.2129,-0.213,-0.2081,-0.2198,-0.2194,-0.2197,-0.2189,-0.2163,-0.2163,-0.2163,-0.2163,-0.1827,-0.183,-0.1747,-0.1717,-0.1734,-0.1803,-0.182,-0.1921,-0.1985,-0.1978,-0.2,-0.1987,-0.1995,-0.1979,-0.1987,-0.1975,-0.1895,-0.1895,-0.1895,-0.1774,-0.1752,-0.1664,-0.163,-0.165,-0.1691,-0.1682,-0.1744,-0.1843,-0.1879,-0.1912,-0.1924,-0.1903,-0.192,-0.1895,-0.1912,-0.1893,0,0]},{"header":{"parameterUnit":"m.s-1","parameterCategory":2,"la1":30.2992,"la2":30.254,"lo1":-89.0895,"lo2":-89.0443,"dy":0.0025,"dx":0.0025,"nx":19,"ny":19,"refTime":"2026-03-16T21:00:00:Z","depth":"0","parameterNumber":3,"parameterNumberName":"V-component_of_CURRENTS"},"data":[0,0,0,-0.0507,-0.0507,-0.0498,-0.0497,-0.0456,-0.0455,0,0,0,0,0,0,0,0,0,0,0,-0.0509,-0.0509,-0.0507,-0.0507,-0.0498,-0.0497,-0.0456,-0.0455,0,0,0,0,0,0,0,0,0,0,0,-0.0508,-0.0509,-0.0509,-0.0507,-0.0498,-0.0497,-0.0456,-0.0469,0,0,0,0,0,0,0,0,0,0,-0.0481,-0.0489,-0.0509,-0.0509,-0.0507,-0.0498,-0.0497,-0.047,-0.0468,-0.0454,0,-0.0457,0,-0.0459,-0.0453,-0.0452,0,0,0,-0.05,-0.049,-0.049,-0.0509,-0.0508,-0.0498,-0.05,-0.0469,-0.0467,-0.0452,-0.0457,-0.0455,-0.0458,-0.0452,-0.0452,-0.0452,-0.0452,0,0,-0.05,-0.0502,-0.0491,-0.0489,-0.051,-0.05,-0.05,-0.0468,-0.0466,-0.0456,-0.0454,-0.0458,-0.0452,-0.0452,-0.0451,-0.0452,0,0,0,-0.0507,-0.0503,-0.0503,-0.049,-0.0493,-0.05,-0.0499,-0.0467,-0.0468,-0.0454,-0.0457,-0.0452,-0.0451,-0.0451,-0.0451,-0.051,0,0,0,-0.0507,-0.0507,-0.0504,-0.0504,-0.0494,-0.0484,-0.05,-0.047,-0.0467,-0.0457,-0.0452,-0.0451,-0.0451,-0.0451,-0.0508,-0.0542,0,0,0,-0.0508,-0.0507,-0.0508,-0.0504,-0.0504,-0.0485,-0.0484,-0.047,-0.0469,-0.0452,-0.0451,-0.045,-0.0451,-0.0506,-0.0538,-0.0543,0,0,0,-0.0507,-0.0529,-0.0508,-0.0538,-0.0504,-0.0527,-0.0484,-0.049,-0.0482,-0.0452,-0.0451,-0.0451,-0.0505,-0.0535,-0.0541,-0.0574,-0.0586,0,0,-0.0539,-0.0533,-0.0553,-0.0536,-0.0579,-0.0528,-0.0556,-0.0522,-0.0486,-0.0457,-0.0457,-0.0509,-0.0537,-0.0543,-0.0615,-0.0626,0,0,0,-0.0568,-0.0583,-0.0593,-0.0611,-0.0612,-0.061,-0.0573,-0.0548,-0.0522,-0.0485,-0.0507,-0.0523,-0.0524,-0.054,-0.0549,-0.0529,-0.0455,-0.0455,-0.0455,-0.0609,-0.0622,-0.0664,-0.0677,-0.0686,-0.0663,-0.0652,-0.0609,-0.0567,-0.0563,-0.0569,-0.0614,-0.0632,-0.0638,-0.0619,-0.0563,-0.0563,-0.0563,-0.0563,-0.0675,-0.0705,-0.0718,-0.0762,-0.0756,-0.0764,-0.0723,-0.0688,-0.0656,-0.0619,-0.0617,-0.06,-0.0651,-0.0627,-0.0567,-0.0567,-0.0566,-0.0566,-0.0565,-0.0709,-0.0726,-0.0751,-0.0811,-0.0838,-0.0825,-0.0843,-0.0788,-0.0718,-0.0719,-0.0704,-0.0703,-0.0681,-0.0708,-0.0708,-0.0709,-0.0709,-0.0709,-0.0709,-0.073,-0.0758,-0.0815,-0.0864,-0.0902,-0.0932,-0.0908,-0.0889,-0.0829,-0.0776,-0.0776,-0.0702,-0.0657,-0.065,-0.0712,-0.0711,-0.0711,-0.0711,-0.0711,-0.0774,-0.0786,-0.0871,-0.0921,-0.1015,-0.1086,-0.1049,-0.1013,-0.0956,-0.093,-0.0808,-0.0792,-0.0772,-0.0764,-0.076,-0.0846,-0.0846,-0.0846,-0.0846,-0.0797,-0.0812,-0.0929,-0.1023,-0.1116,-0.1161,-0.1238,-0.1179,-0.1004,-0.0915,-0.0853,-0.0831,-0.0827,-0.0806,-0.0798,-0.0793,-0.0885,-0.0885,-0.0885,-0.0829,-0.086,-0.0949,-0.1048,-0.1166,-0.1253,-0.1355,-0.1345,-0.1057,-0.0882,-0.0822,-0.082,-0.0781,-0.0775,-0.0734,-0.0724,-0.0711,0,0]}],[{"header":{"parameterUnit":"m.s-1","parameterCategory":2,"la1":30.2992,"la2":30.254,"lo1":-89.0895,"lo2":-89.0443,"dy":0.0025,"dx":0.0025,"nx":19,"ny":19,"refTime":"2026-03-16T21:00:00:Z","depth":"2","parameterNumber":2,"parameterNumberName":"U-component_of_CURRENTS"},"data":[0,0,0,-0.2114,-0.2115,-0.2162,-0.2162,-0.2225,-0.2225,0,0,0,0,0,0,0,0,0,0,0,-0.2089,-0.209,-0.2114,-0.2115,-0.2162,-0.2162,-0.2224,-0.2225,0,0,0,0,0,0,0,0,0,0,0,-0.2089,-0.209,-0.209,-0.2115,-0.2162,-0.2162,-0.2224,-0.2188,0,0,0,0,0,0,0,0,0,0,-0.2142,-0.2116,-0.209,-0.209,-0.2115,-0.2162,-0.2162,-0.2186,-0.219,-0.2205,0,-0.2208,0,-0.2223,-0.223,-0.223,0,0,0,-0.2113,-0.2112,-0.2131,-0.209,-0.2116,-0.2161,-0.214,-0.2188,-0.2193,-0.221,-0.2209,-0.2212,-0.2224,-0.223,-0.223,-0.2286,-0.2287,0,0,-0.211,-0.2095,-0.2127,-0.2133,-0.2123,-0.2139,-0.2141,-0.2191,-0.2191,-0.2209,-0.2213,-0.2225,-0.223,-0.2231,-0.2286,-0.2286,0,0,0,-0.2104,-0.2093,-0.211,-0.2131,-0.2142,-0.214,-0.2143,-0.2188,-0.2195,-0.2214,-0.2226,-0.2231,-0.2232,-0.2286,-0.2286,-0.2278,0,0,0,-0.2103,-0.209,-0.2108,-0.2099,-0.2141,-0.2165,-0.2139,-0.2192,-0.2198,-0.2226,-0.2231,-0.2232,-0.2286,-0.2286,-0.2278,-0.2265,0,0,0,-0.2088,-0.2088,-0.2093,-0.2098,-0.2121,-0.2164,-0.2174,-0.2193,-0.2205,-0.223,-0.2232,-0.2286,-0.2286,-0.2278,-0.2266,-0.2261,0,0,0,-0.2071,-0.2077,-0.2092,-0.2106,-0.212,-0.2161,-0.2174,-0.2203,-0.2224,-0.2231,-0.2286,-0.2286,-0.2278,-0.2266,-0.2261,-0.2199,-0.2193,0,0,-0.2071,-0.2076,-0.2087,-0.2102,-0.2134,-0.2154,-0.2189,-0.2218,-0.2233,-0.2269,-0.2271,-0.2278,-0.2266,-0.2261,-0.2216,-0.2209,0,0,0,-0.2082,-0.2082,-0.2098,-0.2118,-0.2155,-0.2183,-0.2216,-0.2229,-0.2257,-0.2247,-0.2286,-0.2279,-0.2275,-0.2239,-0.2234,-0.2288,-0.2288,-0.2288,-0.2288,-0.2051,-0.2077,-0.209,-0.2124,-0.2153,-0.2204,-0.2224,-0.2248,-0.2267,-0.2275,-0.2278,-0.2276,-0.2238,-0.2233,-0.229,-0.229,-0.229,-0.229,-0.229,-0.2034,-0.2034,-0.2073,-0.209,-0.2136,-0.2166,-0.2227,-0.2244,-0.227,-0.2281,-0.2278,-0.224,-0.2227,-0.229,-0.229,-0.229,-0.229,-0.229,-0.229,-0.1993,-0.1996,-0.2012,-0.2035,-0.2071,-0.2132,-0.2165,-0.2217,-0.225,-0.2256,-0.2218,-0.2218,-0.2261,-0.2257,-0.2257,-0.2257,-0.2257,-0.2257,-0.2256,-0.1939,-0.1959,-0.1938,-0.1976,-0.1987,-0.2031,-0.2124,-0.2156,-0.2187,-0.2198,-0.2198,-0.2264,-0.2266,-0.226,-0.2255,-0.2256,-0.2256,-0.2256,-0.2256,-0.188,-0.1875,-0.1842,-0.184,-0.1869,-0.1862,-0.1998,-0.2058,-0.2107,-0.2103,-0.2166,-0.2169,-0.2163,-0.2167,-0.2158,-0.2128,-0.2128,-0.2128,-0.2128,-0.1818,-0.1822,-0.174,-0.1711,-0.1726,-0.1772,-0.1745,-0.1774,-0.1887,-0.1902,-0.1911,-0.1894,-0.1905,-0.1884,-0.1894,-0.188,-0.1777,-0.1776,-0.1775,-0.1767,-0.1744,-0.1657,-0.1624,-0.1642,-0.1644,-0.1545,-0.1426,-0.153,-0.1757,-0.1807,-0.2113,-0.2115,-0.2121,-0.2113,-0.212,-0.2107,0,0]},{"header":{"parameterUnit":"m.s-1","parameterCategory":2,"la1":30.2992,"la2":30.254,"lo1":-89.0895,"lo2":-89.0443,"dy":0.0025,"dx":0.0025,"nx":19,"ny":19,"refTime":"2026-03-16T21:00:00:Z","depth":"2","parameterNumber":3,"parameterNumberName":"V-component_of_CURRENTS"},"data":[0,0,0,-0.0438,-0.0438,-0.043,-0.043,-0.039,-0.0389,0,0,0,0,0,0,0,0,0,0,0,-0.0439,-0.0439,-0.0438,-0.0438,-0.043,-0.043,-0.039,-0.0389,0,0,0,0,0,0,0,0,0,0,0,-0.0438,-0.0439,-0.0439,-0.0438,-0.043,-0.043,-0.039,-0.0401,0,0,0,0,0,0,0,0,0,0,-0.0412,-0.042,-0.0439,-0.0439,-0.0438,-0.0431,-0.043,-0.0402,-0.0401,-0.0387,0,-0.039,0,-0.0392,-0.0387,-0.0386,0,0,0,-0.043,-0.0421,-0.0421,-0.0439,-0.0438,-0.0431,-0.0432,-0.0402,-0.04,-0.0384,-0.039,-0.0388,-0.0392,-0.0386,-0.0386,-0.0386,-0.0387,0,0,-0.0431,-0.0433,-0.0422,-0.042,-0.0441,-0.0432,-0.0432,-0.0401,-0.0399,-0.039,-0.0388,-0.0391,-0.0386,-0.0386,-0.0386,-0.0387,0,0,0,-0.0437,-0.0433,-0.0434,-0.0421,-0.0424,-0.0432,-0.0431,-0.0401,-0.0402,-0.0387,-0.039,-0.0386,-0.0385,-0.0386,-0.0386,-0.0446,0,0,0,-0.0437,-0.0438,-0.0435,-0.0435,-0.0425,-0.0417,-0.0432,-0.0404,-0.04,-0.0391,-0.0386,-0.0385,-0.0385,-0.0386,-0.0444,-0.0477,0,0,0,-0.0438,-0.0438,-0.0439,-0.0435,-0.0436,-0.0418,-0.0417,-0.0403,-0.0403,-0.0386,-0.0385,-0.0385,-0.0386,-0.0442,-0.0473,-0.0478,0,0,0,-0.0437,-0.0459,-0.0439,-0.0469,-0.0436,-0.046,-0.0417,-0.0424,-0.0416,-0.0386,-0.0386,-0.0386,-0.0441,-0.0471,-0.0476,-0.0496,-0.0507,0,0,-0.0469,-0.0463,-0.0484,-0.0466,-0.051,-0.046,-0.0489,-0.0456,-0.042,-0.0391,-0.0391,-0.0444,-0.0473,-0.0478,-0.0538,-0.0548,0,0,0,-0.0498,-0.0513,-0.0523,-0.0541,-0.0543,-0.0542,-0.0506,-0.0482,-0.0458,-0.0419,-0.0443,-0.0459,-0.046,-0.0467,-0.0475,-0.039,-0.039,-0.039,-0.039,-0.054,-0.0552,-0.0595,-0.0608,-0.0617,-0.0595,-0.0585,-0.0543,-0.0502,-0.0499,-0.0506,-0.055,-0.056,-0.0566,-0.0499,-0.05,-0.05,-0.05,-0.05,-0.0606,-0.0635,-0.0649,-0.0693,-0.0687,-0.0697,-0.0657,-0.0623,-0.0593,-0.0556,-0.0554,-0.0529,-0.0578,-0.0505,-0.0504,-0.0503,-0.0503,-0.0503,-0.0502,-0.0641,-0.0657,-0.0683,-0.0743,-0.0771,-0.0759,-0.0777,-0.0723,-0.0655,-0.0656,-0.0633,-0.0632,-0.058,-0.0646,-0.0646,-0.0646,-0.0647,-0.0647,-0.0647,-0.0661,-0.069,-0.0748,-0.0797,-0.0835,-0.0866,-0.0843,-0.0823,-0.076,-0.0704,-0.0703,-0.0599,-0.0594,-0.0587,-0.065,-0.0649,-0.0649,-0.0649,-0.0648,-0.0705,-0.0717,-0.0804,-0.0855,-0.0948,-0.0994,-0.0977,-0.0936,-0.0883,-0.0853,-0.0717,-0.0714,-0.0691,-0.0685,-0.0679,-0.0762,-0.0762,-0.0762,-0.0762,-0.0727,-0.0743,-0.0861,-0.0955,-0.1047,-0.1061,-0.1078,-0.0946,-0.0817,-0.0713,-0.0714,-0.0685,-0.0683,-0.0657,-0.065,-0.0642,-0.0715,-0.0715,-0.0715,-0.0758,-0.079,-0.088,-0.098,-0.1097,-0.1127,-0.1101,-0.0869,-0.0652,-0.0708,-0.0653,-0.0769,-0.0731,-0.0725,-0.0685,-0.0675,-0.0662,0,0]}],[{"header":{"parameterUnit":"m.s-1","parameterCategory":2,"la1":30.2992,"la2":30.254,"lo1":-89.0895,"lo2":-89.0443,"dy":0.0025,"dx":0.0025,"nx":19,"ny":19,"refTime":"2026-03-16T21:00:00:Z","depth":"4","parameterNumber":2,"parameterNumberName":"U-component_of_CURRENTS"},"data":[0,0,0,-0.1549,-0.1551,-0.1664,-0.1664,-0.1766,-0.1766,0,0,0,0,0,0,0,0,0,0,0,-0.1515,-0.1516,-0.1549,-0.1551,-0.1663,-0.1664,-0.1765,-0.1766,0,0,0,0,0,0,0,0,0,0,0,-0.1514,-0.1515,-0.1517,-0.1552,-0.1663,-0.1664,-0.1765,-0.1692,0,0,0,0,0,0,0,0,0,0,-0.1588,-0.1564,-0.1515,-0.1517,-0.1552,-0.1663,-0.1664,-0.1689,-0.1696,-0.1702,0,-0.1726,0,-0.1744,-0.1772,-0.1772,0,0,0,-0.1554,-0.1558,-0.1585,-0.1517,-0.1553,-0.1663,-0.1614,-0.1693,-0.1702,-0.1711,-0.1727,-0.1731,-0.1746,-0.1772,-0.1773,-0.1847,-0.1847,0,0,-0.1548,-0.1537,-0.1579,-0.159,-0.159,-0.161,-0.1617,-0.1699,-0.1712,-0.1728,-0.1734,-0.1748,-0.1773,-0.1774,-0.1847,-0.1847,0,0,0,-0.1528,-0.1533,-0.1559,-0.1586,-0.1608,-0.1613,-0.1621,-0.1709,-0.1717,-0.1735,-0.1749,-0.1773,-0.1774,-0.1847,-0.1847,-0.185,0,0,0,-0.1525,-0.1521,-0.1556,-0.1551,-0.1607,-0.1666,-0.1629,-0.1711,-0.1721,-0.1749,-0.1773,-0.1775,-0.1847,-0.1847,-0.185,-0.1838,0,0,0,-0.1508,-0.1519,-0.1534,-0.155,-0.1597,-0.1665,-0.1679,-0.1714,-0.1729,-0.1772,-0.1776,-0.1846,-0.1847,-0.1849,-0.1837,-0.1835,0,0,0,-0.149,-0.151,-0.1534,-0.1565,-0.1596,-0.1656,-0.1679,-0.1736,-0.1774,-0.1774,-0.1847,-0.1847,-0.1849,-0.1837,-0.1835,-0.1633,0,0,0,-0.1497,-0.1511,-0.1527,-0.1551,-0.1597,-0.164,-0.1693,-0.1755,-0.178,-0.1817,-0.1819,-0.185,-0.1837,-0.1835,-0.1663,0,0,0,0,-0.1518,-0.1529,-0.1548,-0.1586,-0.1634,-0.1682,-0.1743,-0.1768,-0.1822,-0.1804,-0.1859,-0.185,-0.1848,-0.1731,-0.1849,-0.1849,-0.1849,-0.1849,-0.1849,-0.1494,-0.1525,-0.1554,-0.16,-0.1644,-0.1717,-0.1754,-0.1799,-0.1829,-0.1854,-0.186,-0.1868,-0.1745,-0.1875,-0.1875,-0.1875,-0.1875,-0.1875,-0.1875,-0.1483,-0.1486,-0.1549,-0.1589,-0.1649,-0.1702,-0.1773,-0.1805,-0.1851,-0.1869,-0.1868,-0.1752,-0.1876,-0.1876,-0.1876,-0.1875,-0.1875,-0.1875,-0.1875,-0.1437,-0.144,-0.1494,-0.1555,-0.1618,-0.1693,-0.1723,-0.1794,-0.1843,-0.1855,-0.1734,-0.1865,-0.1856,-0.1864,-0.1864,-0.1864,-0.1864,-0.1864,-0.1864,-0.1353,-0.1405,-0.1435,-0.1513,-0.1548,-0.1605,-0.1702,-0.172,-0.1788,-0.1705,-0.1859,-0.1864,-0.1864,-0.1856,-0.1863,-0.1864,-0.1864,-0.1864,-0.1864,-0.1245,-0.1309,-0.1332,-0.137,-0.1441,-0.1465,-0.159,-0.1582,-0.1585,-0.1545,-0.1621,-0.1633,-0.1609,-0.1615,-0.1598,-0.1529,-0.1526,-0.1524,0,-0.1169,-0.1202,-0.1234,-0.1256,-0.1267,-0.1365,-0.1315,-0.1367,-0.1423,-0.1376,-0.1592,-0.1678,-0.1686,-0.1661,-0.1663,-0.1642,0,0,0,-0.1087,-0.1123,-0.1105,-0.117,-0.1173,-0.1195,-0.1291,-0.1252,-0.1422,-0.1363,-0.1458,-0.1476,-0.1724,-0.1861,-0.1853,-0.1853,-0.184,0,0]},{"header":{"parameterUnit":"m.s-1","parameterCategory":2,"la1":30.2992,"la2":30.254,"lo1":-89.0895,"lo2":-89.0443,"dy":0.0025,"dx":0.0025,"nx":19,"ny":19,"refTime":"2026-03-16T21:00:00:Z","depth":"4","parameterNumber":3,"parameterNumberName":"V-component_of_CURRENTS"},"data":[0,0,0,-0.0121,-0.0121,-0.0141,-0.0141,-0.0141,-0.0141,0,0,0,0,0,0,0,0,0,0,0,-0.0114,-0.0115,-0.0121,-0.0121,-0.0141,-0.0141,-0.0141,-0.0141,0,0,0,0,0,0,0,0,0,0,0,-0.0114,-0.0115,-0.0115,-0.0121,-0.0141,-0.0141,-0.0141,-0.0132,0,0,0,0,0,0,0,0,0,0,-0.0116,-0.0115,-0.0114,-0.0115,-0.0122,-0.0141,-0.0141,-0.0132,-0.0132,-0.0126,0,-0.0133,0,-0.0138,-0.0141,-0.0141,0,0,0,-0.0119,-0.0114,-0.012,-0.0115,-0.0122,-0.0141,-0.0131,-0.0132,-0.0133,-0.0127,-0.0133,-0.0133,-0.0138,-0.0141,-0.0141,-0.0175,-0.0175,0,0,-0.0118,-0.0116,-0.0119,-0.012,-0.0131,-0.0131,-0.0132,-0.0133,-0.0135,-0.0133,-0.0133,-0.0138,-0.0141,-0.0141,-0.0174,-0.0175,0,0,0,-0.0116,-0.0115,-0.0121,-0.012,-0.0126,-0.0131,-0.0133,-0.0135,-0.0137,-0.0133,-0.0138,-0.0141,-0.0141,-0.0174,-0.0175,-0.0229,0,0,0,-0.0116,-0.0115,-0.0121,-0.012,-0.0126,-0.0134,-0.0134,-0.0137,-0.0137,-0.0138,-0.0141,-0.0141,-0.0174,-0.0174,-0.0226,-0.0253,0,0,0,-0.0113,-0.0114,-0.0118,-0.012,-0.0129,-0.0134,-0.0137,-0.0137,-0.014,-0.0141,-0.0141,-0.0173,-0.0174,-0.0224,-0.025,-0.0255,0,0,0,-0.0108,-0.0129,-0.0118,-0.0149,-0.0129,-0.0168,-0.0137,-0.0159,-0.0165,-0.0141,-0.0174,-0.0175,-0.0223,-0.0247,-0.0253,-0.0233,0,0,0,-0.0135,-0.0133,-0.0154,-0.0144,-0.0193,-0.0165,-0.0209,-0.0198,-0.0176,-0.017,-0.0171,-0.0227,-0.0249,-0.0254,-0.029,0,0,0,0,-0.0163,-0.0178,-0.0191,-0.0217,-0.0233,-0.025,-0.0238,-0.0229,-0.0229,-0.0183,-0.0232,-0.0244,-0.0245,-0.0228,-0.0179,-0.0179,-0.0179,-0.0179,-0.0179,-0.0189,-0.021,-0.0255,-0.0281,-0.0304,-0.031,-0.0317,-0.0301,-0.0273,-0.0281,-0.0291,-0.0338,-0.0324,-0.0292,-0.0292,-0.0293,-0.0293,-0.0293,-0.0293,-0.0242,-0.0266,-0.0302,-0.0354,-0.0372,-0.0402,-0.0396,-0.0377,-0.0372,-0.0345,-0.0342,-0.0291,-0.0299,-0.0298,-0.0297,-0.0296,-0.0296,-0.0295,-0.0295,-0.0256,-0.0269,-0.0313,-0.039,-0.0441,-0.0459,-0.049,-0.0469,-0.0427,-0.0432,-0.039,-0.0369,-0.0359,-0.0425,-0.0425,-0.0425,-0.0425,-0.0425,-0.0425,-0.0238,-0.0284,-0.0351,-0.0427,-0.0479,-0.053,-0.0545,-0.0533,-0.0493,-0.0453,-0.0445,-0.0382,-0.0377,-0.0366,-0.0428,-0.0427,-0.0427,-0.0427,-0.0427,-0.0206,-0.0266,-0.0363,-0.043,-0.0549,-0.0582,-0.0605,-0.0561,-0.0543,-0.0496,-0.0449,-0.0448,-0.0421,-0.0415,-0.0404,-0.0479,-0.0479,-0.0479,0,-0.0189,-0.0224,-0.0376,-0.0485,-0.0576,-0.0613,-0.0607,-0.0586,-0.0517,-0.0508,-0.0527,-0.0477,-0.0474,-0.0444,-0.0439,-0.0427,0,0,0,-0.0157,-0.0232,-0.0323,-0.0477,-0.0586,-0.0592,-0.0603,-0.0577,-0.0536,-0.0501,-0.0479,-0.0479,-0.0465,-0.0435,-0.0389,-0.0384,-0.0362,0,0]}]]